This is the latest recevied weather packets stored in our database for station/object N8XHB. If no packets are shown the sender has not sent any weather packets the latest 10 day(s).
| Time | Temp. | Humidity | Pressure | Rain* | Wind** | Luminosity | Snow |
|---|---|---|---|---|---|---|---|
| 1777919645 | 23.89° C | 24% | 1000.2 hPa | 0 mm | - | 670 W/m² | - |
| 1777919343 | 23.89° C | 24% | 1000.4 hPa | 0 mm | - | 760 W/m² | - |
| 1777919040 | 23.89° C | 24% | 1000.3 hPa | 0 mm | - | 755 W/m² | - |
| 1777918736 | 23.33° C | 25% | 1000.6 hPa | 0 mm | - | 792 W/m² | - |
| 1777918434 | 23.33° C | 24% | 1000.6 hPa | 0 mm | - | 719 W/m² | - |
| 1777918133 | 23.89° C | 23% | 1000.6 hPa | 0 mm | - | 704 W/m² | - |
| 1777917831 | 24.44° C | 23% | 1000.4 hPa | 0 mm | - | 918 W/m² | - |
| 1777917529 | 23.89° C | 24% | 1000.5 hPa | 0 mm | - | 885 W/m² | - |
| 1777917225 | 23.89° C | 23% | 1000.6 hPa | 0 mm | - | 892 W/m² | - |
| 1777916923 | 23.33° C | 24% | 1000.6 hPa | 0 mm | - | 905 W/m² | - |
| 1777916621 | 23.89° C | 23% | 1000.7 hPa | 0 mm | - | 820 W/m² | - |
| 1777916317 | 23.89° C | 24% | 1000.7 hPa | 0 mm | - | 856 W/m² | - |
| 1777916014 | 23.89° C | 24% | 1000.7 hPa | 0 mm | - | 810 W/m² | - |
| 1777915711 | 23.89° C | 24% | 1000.8 hPa | 0 mm | - | 844 W/m² | - |
| 1777915408 | 23.89° C | 24% | 1000.9 hPa | 0 mm | - | 785 W/m² | - |
| 1777915104 | 23.89° C | 24% | 1001.1 hPa | 0 mm | - | 918 W/m² | - |
| 1777914801 | 24.44° C | 24% | 1001 hPa | 0 mm | - | 721 W/m² | - |
| 1777914498 | 23.89° C | 24% | 1001.2 hPa | 0 mm | - | 885 W/m² | - |
| 1777914195 | 23.89° C | 25% | 1001.4 hPa | 0 mm | - | 855 W/m² | - |
| 1777913891 | 23.33° C | 26% | 1001.2 hPa | 0 mm | - | 860 W/m² | - |
| 1777913588 | 23.89° C | 25% | 1001.3 hPa | 0 mm | - | 913 W/m² | - |
| 1777913284 | 23.89° C | 26% | 1001.3 hPa | 0 mm | - | 899 W/m² | - |
| 1777912981 | 23.89° C | 25% | 1001.5 hPa | 0 mm | - | 894 W/m² | - |
| 1777912677 | 23.33° C | 26% | 1001.6 hPa | 0 mm | - | 889 W/m² | - |
| 1777912373 | 23.33° C | 25% | 1001.7 hPa | 0 mm | - | 883 W/m² | - |
* Rain latest hour (hover to see other rain measurements)
** Current wind speed in m/s (hover to see current wind gust speed)